KRE727 SKBO-SKRG

Flight info

Callsign KRE727
Flight time 0h 26m
Altitude 24000
Route SOA1A VASIL W36 NIRSO NIRSO4A
Aircraft B722/M-SDFGHRWY/C

Departure

Time 2026-05-03 20:37
Airport El Dorado International Airport (SKBO)

Arrival

Time 2026-05-03 21:04
Airport Jose Maria Córdova International Airport (SKRG)
Time Latitude Longitude Altitude Speed Heading
2026-05-03 20:15 4.68796 -74.13422 8369 ft 0 kts 307°
2026-05-03 20:26 4.68795 -74.13421 8369 ft 0 kts 307°
2026-05-03 20:27 4.68796 -74.13423 8369 ft 2 kts 308°
2026-05-03 20:27 4.68814 -74.13460 8369 ft 8 kts 273°
2026-05-03 20:27 4.68830 -74.13531 8369 ft 13 kts 301°
2026-05-03 20:28 4.68879 -74.13596 8369 ft 12 kts 308°
2026-05-03 20:28 4.68897 -74.13671 8369 ft 12 kts 239°
2026-05-03 20:28 4.68894 -74.13750 8369 ft 14 kts 303°
2026-05-03 20:28 4.68961 -74.13839 8369 ft 17 kts 307°
2026-05-03 20:29 4.69038 -74.13938 8369 ft 19 kts 314°
2026-05-03 20:29 4.69143 -74.14035 8369 ft 21 kts 308°
2026-05-03 20:29 4.69229 -74.14152 8369 ft 21 kts 307°
2026-05-03 20:29 4.69317 -74.14268 8369 ft 21 kts 307°
2026-05-03 20:30 4.69404 -74.14385 8369 ft 20 kts 306°
2026-05-03 20:30 4.69490 -74.14500 8369 ft 21 kts 307°
2026-05-03 20:30 4.69577 -74.14616 8369 ft 21 kts 307°
2026-05-03 20:30 4.69663 -74.14731 8369 ft 21 kts 307°
2026-05-03 20:31 4.69753 -74.14843 8369 ft 21 kts 310°
2026-05-03 20:31 4.69840 -74.14957 8369 ft 20 kts 306°
2026-05-03 20:31 4.69925 -74.15071 8369 ft 20 kts 307°
2026-05-03 20:31 4.70011 -74.15184 8369 ft 20 kts 307°
2026-05-03 20:32 4.70097 -74.15296 8369 ft 20 kts 307°
2026-05-03 20:32 4.70183 -74.15411 8369 ft 21 kts 307°
2026-05-03 20:32 4.70270 -74.15525 8369 ft 21 kts 307°
2026-05-03 20:32 4.70357 -74.15641 8369 ft 21 kts 308°
2026-05-03 20:33 4.70453 -74.15767 8369 ft 24 kts 307°
2026-05-03 20:33 4.70556 -74.15904 8369 ft 26 kts 307°
2026-05-03 20:33 4.70667 -74.16049 8369 ft 27 kts 307°
2026-05-03 20:33 4.70777 -74.16194 8370 ft 26 kts 307°
2026-05-03 20:34 4.70880 -74.16330 8369 ft 24 kts 307°
2026-05-03 20:34 4.70971 -74.16450 8369 ft 20 kts 307°
2026-05-03 20:34 4.71050 -74.16555 8369 ft 19 kts 307°
2026-05-03 20:34 4.71128 -74.16659 8369 ft 19 kts 306°
2026-05-03 20:35 4.71193 -74.16746 8369 ft 12 kts 300°
2026-05-03 20:35 4.71171 -74.16817 8369 ft 12 kts 218°
2026-05-03 20:35 4.71097 -74.16872 8366 ft 14 kts 214°
2026-05-03 20:35 4.71040 -74.16892 8366 ft 6 kts 158°
2026-05-03 20:36 4.71020 -74.16873 8366 ft 0 kts 127°
2026-05-03 20:36 4.71019 -74.16871 8366 ft 6 kts 127°
2026-05-03 20:36 4.70870 -74.16679 8366 ft 62 kts 127°
2026-05-03 20:36 4.70506 -74.16197 8369 ft 110 kts 127°
2026-05-03 20:37 4.69965 -74.15481 8368 ft 149 kts 127°
2026-05-03 20:37 4.69263 -74.14565 8467 ft 168 kts 131°
2026-05-03 20:37 4.68571 -74.13654 8984 ft 168 kts 131°
2026-05-03 20:37 4.67655 -74.12957 9375 ft 168 kts 163°
2026-05-03 20:38 4.66471 -74.12890 9647 ft 179 kts 197°
2026-05-03 20:38 4.65383 -74.13538 10020 ft 188 kts 224°
2026-05-03 20:38 4.64614 -74.14677 10323 ft 212 kts 242°
2026-05-03 20:38 4.63956 -74.16094 10678 ft 236 kts 246°
2026-05-03 20:39 4.63220 -74.17660 11156 ft 255 kts 243°
2026-05-03 20:39 4.62413 -74.19245 11951 ft 263 kts 241°
2026-05-03 20:39 4.61612 -74.20956 12507 ft 279 kts 249°
2026-05-03 20:39 4.61065 -74.22851 13275 ft 287 kts 257°
2026-05-03 20:40 4.60751 -74.24840 14124 ft 291 kts 261°
2026-05-03 20:40 4.60457 -74.26923 14464 ft 315 kts 262°
2026-05-03 20:40 4.60187 -74.29176 14759 ft 337 kts 264°
2026-05-03 20:40 4.60016 -74.31591 15062 ft 358 kts 267°
2026-05-03 20:41 4.59935 -74.34156 15288 ft 374 kts 268°
2026-05-03 20:41 4.59869 -74.36790 15565 ft 383 kts 268°
2026-05-03 20:41 4.59748 -74.39498 15603 ft 398 kts 270°
2026-05-03 20:41 4.60078 -74.42253 16030 ft 399 kts 281°
2026-05-03 20:42 4.60691 -74.44955 16344 ft 405 kts 287°
2026-05-03 20:42 4.61552 -74.47661 16760 ft 407 kts 290°
2026-05-03 20:42 4.62448 -74.50346 17213 ft 408 kts 288°
2026-05-03 20:42 4.63225 -74.53102 17595 ft 412 kts 285°
2026-05-03 20:43 4.63956 -74.55887 18041 ft 415 kts 288°
2026-05-03 20:43 4.65121 -74.58535 18517 ft 416 kts 302°
2026-05-03 20:43 4.66835 -74.60866 19003 ft 416 kts 315°
2026-05-03 20:43 4.69010 -74.62768 19514 ft 415 kts 328°
2026-05-03 20:44 4.71546 -74.64151 19989 ft 415 kts 341°
2026-05-03 20:44 4.74297 -74.65033 20459 ft 416 kts 348°
2026-05-03 20:44 4.77125 -74.65659 20934 ft 417 kts 353°
2026-05-03 20:44 4.79998 -74.66158 21356 ft 421 kts 353°
2026-05-03 20:45 4.82857 -74.66834 21808 ft 427 kts 343°
2026-05-03 20:45 4.85562 -74.68116 22220 ft 434 kts 331°
2026-05-03 20:45 4.88037 -74.69810 22664 ft 438 kts 325°
2026-05-03 20:45 4.90419 -74.71734 23090 ft 442 kts 322°
2026-05-03 20:46 4.92743 -74.73767 23473 ft 446 kts 318°
2026-05-03 20:46 4.94732 -74.76172 23787 ft 452 kts 305°
2026-05-03 20:46 4.96346 -74.78899 23902 ft 453 kts 300°
2026-05-03 20:46 4.97726 -74.81747 23897 ft 456 kts 296°
2026-05-03 20:47 4.99000 -74.84670 23891 ft 458 kts 295°
2026-05-03 20:47 5.00324 -74.87583 23903 ft 459 kts 297°
2026-05-03 20:47 5.01777 -74.90421 23903 ft 457 kts 299°
2026-05-03 20:47 5.03235 -74.93261 23898 ft 457 kts 298°
2026-05-03 20:48 5.04607 -74.96144 23888 ft 460 kts 296°
2026-05-03 20:48 5.05965 -74.99048 23888 ft 459 kts 297°
2026-05-03 20:48 5.07368 -75.01913 23938 ft 457 kts 298°
2026-05-03 20:48 5.08793 -75.04767 23938 ft 457 kts 298°
2026-05-03 20:49 5.10190 -75.07636 23983 ft 458 kts 297°
2026-05-03 20:49 5.11569 -75.10519 23981 ft 458 kts 297°
2026-05-03 20:49 5.12959 -75.13392 24003 ft 458 kts 297°
2026-05-03 20:49 5.14368 -75.16261 24029 ft 458 kts 298°
2026-05-03 20:50 5.15921 -75.18997 24059 ft 457 kts 307°
2026-05-03 20:50 5.17874 -75.21504 24121 ft 457 kts 312°
2026-05-03 20:50 5.20007 -75.23860 24111 ft 456 kts 316°
2026-05-03 20:50 5.22206 -75.26162 23861 ft 455 kts 315°
2026-05-03 20:51 5.24306 -75.28536 23549 ft 454 kts 312°
2026-05-03 20:51 5.26328 -75.30943 23214 ft 451 kts 312°
2026-05-03 20:51 5.28393 -75.33302 22893 ft 448 kts 314°
2026-05-03 20:51 5.30517 -75.35592 22546 ft 445 kts 317°
2026-05-03 20:52 5.32917 -75.37524 22210 ft 441 kts 330°
2026-05-03 20:52 5.35615 -75.38921 21888 ft 435 kts 341°
2026-05-03 20:52 5.38509 -75.39757 21470 ft 429 kts 353°
2026-05-03 20:52 5.41455 -75.40096 21070 ft 424 kts 359°
2026-05-03 20:53 5.44361 -75.40197 20566 ft 409 kts
2026-05-03 20:53 5.47120 -75.40177 20009 ft 396 kts
2026-05-03 20:53 5.49825 -75.40237 19438 ft 374 kts
2026-05-03 20:53 5.52336 -75.40375 18972 ft 355 kts
2026-05-03 20:54 5.54783 -75.40473 18528 ft 348 kts
2026-05-03 20:54 5.59541 -75.40585 17472 ft 338 kts
2026-05-03 20:54 5.61881 -75.40668 16915 ft 334 kts
2026-05-03 20:55 5.64191 -75.40750 16380 ft 331 kts
2026-05-03 20:55 5.66419 -75.40822 15820 ft 306 kts
2026-05-03 20:55 5.68477 -75.40886 15303 ft 284 kts
2026-05-03 20:55 5.70410 -75.40945 14855 ft 277 kts
2026-05-03 20:56 5.72339 -75.41004 14485 ft 277 kts
2026-05-03 20:56 5.74256 -75.41065 14124 ft 275 kts
2026-05-03 20:56 5.76164 -75.41125 13814 ft 272 kts
2026-05-03 20:56 5.78052 -75.41188 13485 ft 270 kts
2026-05-03 20:57 5.79927 -75.41276 13156 ft 269 kts 360°
2026-05-03 20:57 5.81789 -75.41388 12837 ft 267 kts 359°
2026-05-03 20:57 5.83009 -75.41460 12671 ft 264 kts 359°
2026-05-03 20:57 5.85416 -75.41591 12337 ft 253 kts
2026-05-03 20:58 5.86565 -75.41654 12205 ft 246 kts 360°
2026-05-03 20:58 5.88251 -75.41745 11958 ft 236 kts 359°
2026-05-03 20:58 5.89831 -75.41839 11673 ft 220 kts 357°
2026-05-03 20:58 5.91351 -75.42134 11305 ft 224 kts 352°
2026-05-03 20:59 5.92904 -75.42252 10992 ft 227 kts
2026-05-03 20:59 5.94483 -75.42177 10606 ft 225 kts
2026-05-03 20:59 5.96036 -75.42124 10131 ft 222 kts 359°
2026-05-03 20:59 5.97518 -75.42216 9850 ft 211 kts 360°
2026-05-03 21:00 5.98922 -75.42222 9622 ft 191 kts
2026-05-03 21:00 5.99800 -75.42203 9510 ft 185 kts
2026-05-03 21:00 6.01527 -75.42212 9188 ft 190 kts
2026-05-03 21:00 6.02855 -75.42247 9154 ft 189 kts
2026-05-03 21:01 6.04071 -75.42254 9090 ft 161 kts
2026-05-03 21:01 6.04444 -75.42252 9016 ft 157 kts
2026-05-03 21:01 6.07359 -75.42243 8530 ft 161 kts
2026-05-03 21:02 6.08483 -75.42257 8316 ft 162 kts
2026-05-03 21:02 6.09597 -75.42264 8123 ft 156 kts
2026-05-03 21:02 6.10660 -75.42245 7827 ft 152 kts
2026-05-03 21:02 6.11719 -75.42266 7645 ft 151 kts
2026-05-03 21:03 6.12774 -75.42284 7482 ft 153 kts
2026-05-03 21:03 6.13841 -75.42290 7240 ft 150 kts
2026-05-03 21:03 6.14855 -75.42302 7026 ft 142 kts
2026-05-03 21:03 6.15747 -75.42305 6983 ft 100 kts 360°
2026-05-03 21:04 6.16230 -75.42307 6981 ft 53 kts 360°
2026-05-03 21:04 6.16567 -75.42310 6990 ft 43 kts 359°
2026-05-03 21:04 6.16828 -75.42312 7004 ft 27 kts 359°
2026-05-03 21:04 6.16978 -75.42328 7014 ft 15 kts 341°
2026-05-03 21:05 6.17068 -75.42384 7015 ft 16 kts 325°
2026-05-03 21:05 6.17146 -75.42437 7019 ft 12 kts 326°
2026-05-03 21:05 6.17205 -75.42473 7017 ft 10 kts 334°
2026-05-03 21:05 6.17287 -75.42489 7022 ft 14 kts 360°
2026-05-03 21:06 6.17383 -75.42489 7025 ft 14 kts
2026-05-03 21:06 6.17469 -75.42488 7024 ft 10 kts
2026-05-03 21:06 6.17539 -75.42492 7024 ft 10 kts 344°
2026-05-03 21:06 6.17564 -75.42538 7026 ft 9 kts 272°
2026-05-03 21:07 6.17576 -75.42596 7025 ft 7 kts 313°
2026-05-03 21:07 6.17593 -75.42646 7023 ft 9 kts 270°
2026-05-03 21:07 6.17592 -75.42672 7023 ft 1 kts 269°
2026-05-03 21:07 6.17592 -75.42676 7021 ft 0 kts 269°